Regional Weather Roundup
Issued by NWS

Home | Current Version | Previous Version | Graphics & Text | Print | Product List | Glossary On
Versions: 1 2 3 4 5 6 7 8 9 10 11 12 13 14 15 16 17 18 19 20 21 22 23 24 25 26 27 28 29 30 31 32 33 34 35 36 37 38 39 40 41 42 43 44 45 46 47 48 49 50
000
ASUS45 KCYS 212210
RWRWY

WYOMING REGIONAL WEATHER ROUNDUP
NATIONAL WEATHER SERVICE CHEYENNE WY
300 PM MST SUN DEC 21 2014

NOTE:  "FAIR" INDICATES FEW OR NO CLOUDS BELOW 12,000 FEET
WITH NO SIGNIFICANT WEATHER AND/OR OBSTRUCTIONS TO VISIBILITY.

WYZ001-212300-
YELLOWSTONE NATIONAL PARK

CITY           SKY/WX    TMP DP  RH WIND       PRES   REMARKS
LK YELLOWSTONE   N/A     28  22  78 W9G28     29.68R WCI  19
W YELLOWSTONE  NOT AVBL

$$
WYZ002>013-054>058-071-098>099-212300-
NORTHERN WYOMING

CITY           SKY/WX    TMP DP  RH WIND       PRES   REMARKS
JACKSON        PTSUNNY   39  28  65 SW25G39   29.64  WCI  28
CODY           CLOUDY    34  30  86 N9        29.55R WCI  26
GREYBULL       LGT RAIN  36  33  89 S5        29.52F WCI  32
WORLAND        PTSUNNY   32  26  78 CALM      29.50R
SHERIDAN       FAIR      45  27  49 NW28G33   29.42R
BUFFALO        CLOUDY    40  30  67 NW30G45   29.46R WCI  28
GILLETTE       FAIR      46  31  55 W12       29.42R
HULETT           N/A    N/A N/A N/A MISG        N/A
NEWCASTLE      FAIR      37  32  81 N3        29.45R

$$
WYZ014>020-022>026-101>103-212300-
CENTRAL WYOMING

CITY           SKY/WX    TMP DP  RH WIND       PRES   REMARKS
BIG PINEY      MIX PCPN  34  32  92 W7        29.66S WCI  28
PINEDALE       LGT SNOW  32  32 100 NW9       29.65R WCI  24
DUBOIS         NOT AVBL
LANDER         FAIR      36  27  69 CALM      29.54R
RIVERTON       PTSUNNY   39  31  72 W21       29.54S WCI  29
CASPER         CLOUDY    40  30  67 CALM      29.50R
DOUGLAS        FAIR      44  29  55 NW14      29.48R

$$
WYZ021-027>030-104>119-212300-
SOUTHERN WYOMING

CITY           SKY/WX    TMP DP  RH WIND       PRES   REMARKS
EVANSTON       LGT RAIN  35  34  96 W18       29.82F WCI  24
KEMMERER       LGT SNOW  34  32  93 W32G38    29.72R WCI  20
FORT BRIDGER   CLOUDY    38  36  92 W33G45    29.79R WCI  25
ROCK SPRINGS   PTSUNNY   37  31  78 W37G51    29.67S WCI  23
DIXON          CLOUDY    35  31  86 S24G33    29.71S WCI  22
RAWLINS        CLOUDY    37  31  78 W28G36    29.61F WCI  25
SARATOGA       CLOUDY    36  30  80 W32G40    29.62S WCI  22
LARAMIE        CLOUDY    37  28  70 W22       29.55R WCI  26
CHEYENNE       FAIR      45  26  47 W21G35    29.50F
TORRINGTON     FAIR     N/A N/A N/A W15G28    29.45R
PINE BLUFFS    MOCLDY    46  28  49 NW30G41   29.48F

$$



USA.gov is the U.S. government's official web portal to all federal, state and local government web resources and services.